GEFSNE_500_meanwind_216.txt.gz
Wind_Speed
22 23 23 23 24 24 25 26 26 26 26 27 28 29 29 29 30 30 30 30 31 31 32 33 32 32 33 33 34 34 34 34 34 35 36 38 38 38
22 23 23 23 24 25 26 26 26 27 26 26 28 29 30 30 30 31 31 31 31 31 31 32 32 32 33 33 34 35 36 36 35 36 37 38 38 38
21 22 23 24 25 25 26 26 26 27 26 26 27 28 29 29 30 30 31 31 31 31 31 32 32 32 33 33 34 35 36 36 37 36 37 38 39 40
21 22 22 23 24 24 25 25 26 26 27 27 27 27 28 29 29 29 30 30 30 30 31 31 32 32 32 32 33 35 35 36 37 38 37 38 39 40
21 21 22 23 24 24 25 25 26 27 27 27 27 27 28 28 28 29 29 30 31 31 31 31 31 32 32 32 33 34 35 37 39 40 39 39 39 39
21 22 23 23 24 24 24 25 26 27 27 27 26 26 27 28 29 29 29 30 30 30 31 31 31 31 32 33 33 35 35 36 37 38 39 39 40 40
20 21 22 23 23 23 24 24 26 26 27 26 26 27 27 27 28 28 28 28 28 29 30 30 31 32 32 32 33 33 34 34 35 36 37 38 39 40
19 20 21 22 22 23 24 24 25 25 25 26 26 26 27 28 28 28 29 29 28 28 29 29 30 31 31 32 32 33 33 34 34 35 36 37 37 38
19 20 21 22 22 23 24 24 25 25 26 26 27 27 29 29 28 28 29 28 27 27 28 29 30 31 30 31 31 31 32 32 33 33 34 36 37 37
19 21 21 22 23 23 24 25 26 26 27 28 28 29 29 29 28 28 28 27 27 27 28 28 29 30 30 30 31 31 30 31 31 32 33 34 35 37
21 22 23 23 24 25 25 26 27 27 28 29 29 30 29 29 29 28 28 28 27 27 27 27 27 28 28 29 29 29 29 29 30 31 32 33 34 34
22 23 25 25 25 26 26 27 28 28 29 29 29 29 29 29 28 27 27 27 27 27 27 27 26 27 26 27 28 28 28 29 29 29 30 32 33 33
23 24 25 25 26 27 28 29 30 30 30 30 30 30 30 29 28 27 27 26 26 26 26 26 25 25 25 25 26 27 27 27 27 28 28 30 31 32
23 24 25 26 27 28 29 30 31 30 30 31 30 30 29 27 27 27 27 27 27 26 26 25 25 25 25 25 25 26 26 26 26 27 27 28 29 29
23 24 25 27 28 29 30 30 31 31 31 31 30 29 28 27 26 26 26 26 26 26 26 26 26 25 25 24 23 24 25 26 25 26 27 27 27 27
24 25 26 27 29 30 31 31 32 32 31 31 30 29 28 27 25 24 24 24 24 24 25 26 26 26 24 23 22 22 23 25 25 25 25 25 26 25
25 26 28 29 30 31 32 32 33 32 31 30 29 28 27 27 26 25 25 24 24 23 23 23 23 23 23 22 22 22 23 23 24 24 23 24 25 26
26 28 29 30 31 32 32 33 33 32 31 29 29 28 28 27 27 26 25 24 24 23 22 22 22 21 21 20 21 21 21 22 23 23 23 23 24 26
28 29 30 31 31 32 33 33 32 31 31 30 30 29 29 28 26 25 24 23 23 22 22 21 20 20 19 18 19 20 20 21 22 23 23 23 24 25
28 29 30 31 31 32 33 33 32 31 31 31 30 29 28 27 26 25 23 22 21 20 20 20 20 19 18 18 18 19 20 20 21 22 22 22 22 23
28 29 30 30 31 32 32 32 31 31 31 31 30 29 28 27 25 24 23 22 21 20 19 19 19 19 19 19 19 19 19 19 19 19 20 20 19 20
28 29 30 30 31 31 31 31 31 31 31 31 30 29 29 27 26 25 23 22 21 20 19 19 19 18 18 19 19 19 18 17 17 17 17 17 18 18
30 30 30 31 30 30 30 30 31 31 31 31 31 30 29 28 26 25 24 22 21 20 19 18 17 16 17 18 17 17 16 16 16 16 16 16 16 17

GEFSNE_500_meanwind_222.txt.gz
Wind_Speed
23 23 23 24 26 27 27 27 27 27 27 29 29 29 30 30 30 30 31 32 32 33 34 35 35 36 37 37 37 37 37 37 37 37 38 38 37 36
23 24 24 25 26 26 27 27 28 28 28 28 29 29 30 31 31 31 32 32 33 33 33 34 35 35 36 37 38 38 38 39 39 39 39 40 40 39
24 24 24 25 26 26 26 26 27 28 27 27 28 29 30 31 32 32 33 32 32 32 33 33 34 35 36 37 38 39 39 39 40 41 41 41 41 41
23 24 24 24 25 25 26 27 28 28 28 27 28 29 30 31 31 32 32 32 31 31 32 33 34 35 35 36 37 38 38 39 40 41 42 42 42 42
22 23 24 24 24 25 26 27 28 29 29 29 29 30 30 30 30 30 30 30 30 31 32 33 33 35 36 36 37 37 38 39 40 41 42 42 42 42
21 22 23 23 24 25 26 27 28 29 29 29 29 30 30 30 29 29 29 30 31 32 33 33 33 35 36 36 37 37 38 39 39 40 40 42 42 43
21 22 23 23 24 24 26 27 29 29 29 29 29 29 29 29 29 30 30 30 31 32 33 33 34 35 35 36 36 36 37 38 39 40 40 41 42 43
21 22 23 24 24 25 27 29 29 29 29 29 30 29 28 28 29 30 31 31 31 32 33 33 34 35 35 36 37 37 37 37 38 39 40 41 41 42
21 22 23 24 25 27 28 29 29 29 29 30 29 29 28 29 30 30 31 31 32 32 32 33 33 34 35 36 36 37 37 38 38 39 40 40 40 41
22 23 24 25 25 27 28 29 29 29 29 29 29 29 30 30 30 30 30 31 31 31 32 33 33 33 33 33 34 34 35 36 37 37 38 39 40 41
22 24 25 26 27 28 28 29 29 29 30 30 30 30 30 30 30 30 30 30 30 30 31 31 31 31 31 32 32 32 33 33 34 35 36 37 39 40
23 25 26 27 28 29 29 30 29 30 30 30 30 31 31 31 31 30 29 29 29 29 30 29 29 29 29 30 31 31 32 32 32 32 33 34 35 36
23 25 27 28 29 30 30 31 31 30 30 30 31 31 31 31 30 29 28 28 28 28 28 28 27 27 28 27 28 28 28 29 29 30 32 33 33 34
24 26 28 29 30 31 31 31 31 31 30 30 30 30 30 29 29 28 27 27 28 27 26 26 26 26 26 25 25 25 25 26 28 29 31 32 33 33
25 27 28 30 31 32 32 31 31 30 30 30 30 30 30 29 28 27 26 26 27 27 26 24 24 24 23 23 22 22 22 23 25 26 27 29 31 31
26 27 29 30 31 32 32 31 31 30 30 30 29 30 29 28 27 27 26 25 25 25 25 24 22 21 21 21 21 21 21 21 22 24 25 26 27 27
26 28 29 31 32 32 32 32 31 30 30 30 30 29 29 27 26 25 25 25 25 24 23 23 22 21 20 20 20 21 21 21 21 21 22 23 25 25
28 29 30 31 32 32 32 32 31 31 31 30 30 29 28 27 26 25 24 24 24 23 22 21 21 21 21 21 21 20 21 20 20 20 20 20 20 22
28 29 31 31 32 32 32 32 32 31 31 31 31 30 29 28 27 27 26 25 25 24 22 21 21 20 20 20 19 19 19 19 19 19 18 18 18 19
29 30 31 32 32 32 31 32 32 32 32 31 30 29 28 28 28 27 26 25 24 22 22 21 20 20 20 19 18 17 17 17 17 16 16 17 17 18
29 31 31 32 32 31 31 31 32 32 32 31 30 29 28 27 27 26 26 25 23 22 20 20 20 20 19 18 17 16 15 15 15 15 15 16 16 16
29 30 31 32 31 30 30 30 30 31 31 30 29 28 27 27 27 26 26 24 22 21 20 19 19 19 18 17 16 15 14 15 15 14 14 14 14 14
29 30 31 31 30 29 29 29 30 30 31 30 29 28 27 27 27 27 26 25 23 22 20 19 19 18 17 16 15 15 14 13 13 13 14 14 14 13

GEFSNE_500_meanwind_228.txt.gz
Wind_Speed
21 21 23 24 25 26 26 27 27 28 28 28 29 30 31 31 31 32 32 32 33 33 33 33 33 34 35 35 36 36 36 36 36 36 37 38 39 39
20 21 22 24 25 25 26 27 27 28 28 29 29 30 31 31 31 32 32 33 33 33 32 32 33 34 35 36 37 37 37 38 37 37 38 38 40 42
20 22 22 23 24 25 26 26 27 28 29 29 30 31 31 31 32 32 33 32 33 33 33 33 34 35 36 36 37 38 38 39 39 39 39 40 40 41
20 21 22 23 24 25 25 26 27 28 29 30 30 31 31 32 32 33 33 32 32 32 32 33 33 34 35 35 36 37 38 39 40 41 41 41 41 42
21 22 23 23 23 25 25 25 27 28 29 29 30 30 31 32 32 32 32 31 31 31 31 32 33 34 35 35 36 37 38 39 40 41 42 43 43 43
20 21 23 23 24 24 25 26 27 28 28 28 28 28 29 30 31 30 30 30 30 31 32 33 34 34 34 35 35 36 37 38 40 41 42 43 44 45
19 20 21 22 23 25 25 26 27 28 28 28 27 27 28 28 28 29 29 29 30 31 32 32 33 33 34 35 36 37 38 39 41 42 43 44 44 44
19 20 21 22 23 24 25 27 28 28 28 28 28 28 28 28 27 28 28 28 29 30 31 32 32 33 34 35 36 37 38 39 40 41 43 43 44 45
18 19 21 23 24 25 26 27 28 28 28 28 28 28 28 28 27 27 27 27 29 29 30 31 32 32 33 34 35 36 37 38 39 40 42 43 44 45
18 20 21 23 24 25 26 27 28 28 28 28 28 28 27 27 28 28 27 27 27 28 29 29 29 30 32 33 34 34 35 36 37 38 40 42 43 44
18 19 21 24 25 26 26 27 27 27 28 28 28 28 27 27 28 28 27 26 26 26 27 27 27 28 30 31 32 32 33 34 35 36 37 38 40 42
19 20 22 24 25 26 26 26 27 27 27 27 27 27 27 27 27 26 26 26 25 24 24 25 26 26 27 28 29 30 31 32 32 34 35 36 37 39
20 21 22 24 25 25 26 26 26 26 26 26 26 27 26 26 26 25 25 25 24 23 24 24 24 24 25 26 27 28 29 29 30 30 31 33 34 36
20 21 23 24 25 25 26 26 26 26 26 26 26 26 25 25 25 24 24 24 24 23 23 23 23 23 24 25 25 26 27 27 27 28 29 30 32 34
20 21 23 24 25 25 25 25 26 26 26 26 26 25 24 24 24 23 23 23 24 23 23 24 23 23 23 24 24 24 24 25 25 25 26 27 28 29
20 22 23 24 25 25 24 25 26 26 27 26 25 24 24 23 23 23 23 23 22 22 22 23 22 22 23 23 23 22 22 22 23 23 23 24 25 26
22 23 24 25 25 24 24 25 26 26 26 26 25 24 24 23 23 23 23 22 22 21 21 21 22 22 22 22 21 21 21 21 21 22 21 21 22 24
23 24 24 25 25 24 24 25 26 26 26 26 25 24 24 23 23 23 22 22 22 21 21 21 21 21 21 20 20 21 21 20 20 19 20 20 21 21
24 24 25 25 25 24 25 25 26 25 26 26 25 24 24 24 23 23 23 22 22 22 22 21 21 20 19 19 19 19 19 19 18 18 18 19 19 20
24 24 25 25 25 24 24 25 25 25 25 25 25 24 24 24 24 23 23 23 23 22 22 21 21 20 20 19 18 18 18 18 17 17 17 17 17 18
24 24 24 25 25 24 23 24 25 24 24 24 24 24 24 24 24 23 24 24 24 23 22 22 21 21 20 19 18 17 17 17 16 16 16 16 16 16
24 24 24 24 24 24 24 24 24 24 24 24 24 23 24 24 24 24 24 25 24 24 23 23 22 21 20 19 18 17 16 16 15 14 14 14 15 14
23 24 24 24 24 24 24 24 25 25 24 24 23 23 24 24 24 24 24 25 24 24 23 22 21 20 19 18 17 16 15 14 13 13 13 12 12 12

GEFSNE_500_meanwind_234.txt.gz
Wind_Speed
20 21 22 23 24 25 26 27 29 29 29 29 30 30 31 32 32 32 32 33 33 33 33 33 33 34 34 34 34 34 35 35 36 37 38 38 39 39
20 21 22 24 25 25 27 28 29 30 30 30 30 30 31 31 31 32 32 32 32 32 32 33 33 33 34 35 35 35 35 35 36 38 38 38 39 39
20 21 22 24 25 25 27 28 29 29 29 29 29 30 30 30 30 31 31 30 30 31 31 33 33 34 34 35 35 35 36 37 37 38 39 39 39 40
20 21 22 23 24 25 27 27 28 28 28 28 28 29 29 29 30 31 31 30 30 30 30 31 32 33 34 34 35 36 36 36 37 39 40 41 41 41
20 21 21 22 23 25 26 27 27 27 27 27 27 28 28 29 30 30 30 30 30 30 30 31 32 32 32 33 34 34 35 36 37 38 39 40 41 41
19 20 21 22 22 23 25 26 26 26 26 26 26 27 27 28 28 28 28 28 28 29 29 29 30 30 30 31 31 33 34 35 36 37 38 39 40 41
19 20 21 21 22 23 24 25 25 25 24 25 25 25 26 27 27 26 26 27 28 28 27 27 28 28 29 30 31 32 33 35 37 38 39 40 41 42
20 20 21 21 22 23 24 24 25 24 24 25 25 25 26 26 25 26 27 27 27 28 27 27 27 28 28 29 31 32 33 34 36 37 38 39 41 42
19 19 20 21 22 22 23 24 24 25 25 25 25 25 25 25 26 26 27 27 26 26 27 27 27 28 29 30 30 31 32 33 35 36 37 38 39 41
18 19 20 21 21 22 23 24 24 25 25 25 25 25 25 25 26 26 26 26 26 26 26 27 27 27 28 28 29 30 31 32 33 34 35 37 39 40
19 20 20 21 22 22 24 24 24 24 24 25 25 25 25 25 25 25 26 26 25 25 25 26 26 26 26 26 27 28 29 30 31 31 32 33 35 36
20 21 21 21 22 23 24 24 23 23 24 25 26 26 25 25 25 25 25 25 25 24 24 24 24 24 24 24 25 26 27 28 29 30 31 32 33 34
21 21 21 22 22 23 24 23 23 24 24 25 26 25 25 25 24 24 24 24 24 23 23 23 23 23 23 22 22 23 24 26 27 28 29 30 31 32
21 21 21 21 22 23 24 24 24 24 24 25 25 25 24 23 23 23 24 24 23 23 23 23 22 22 22 22 21 22 22 24 25 26 27 28 29 30
19 20 21 22 21 22 23 23 23 24 24 24 24 24 24 23 23 23 23 24 23 23 23 22 22 22 22 22 22 22 22 23 24 25 26 27 27 28
19 20 21 22 22 22 23 23 23 24 24 24 23 23 24 24 24 24 24 23 23 23 22 23 23 24 24 24 23 23 22 22 23 24 25 26 27 28
20 20 21 22 22 22 23 23 23 24 24 24 24 24 24 24 24 24 24 23 23 23 23 24 24 25 25 24 23 22 22 22 22 23 24 24 24 25
20 20 21 22 22 23 23 23 22 23 24 24 24 25 24 24 23 23 24 24 24 24 25 25 25 24 24 23 23 22 21 21 22 22 22 21 21 21
21 21 22 22 23 23 23 23 24 23 23 24 24 24 24 24 23 23 24 24 24 25 25 25 26 25 24 23 22 22 21 20 21 21 21 21 20 20
21 21 22 22 23 24 24 24 24 24 24 24 24 24 24 24 24 24 24 24 24 25 25 26 26 26 25 23 22 21 20 20 20 19 19 19 19 18
21 22 23 23 23 24 25 24 24 24 24 24 23 23 24 24 24 24 24 24 24 25 25 26 26 25 25 23 21 20 18 18 18 17 16 16 16 16
22 22 23 23 23 25 25 24 24 24 24 23 23 23 23 23 24 24 25 25 25 25 25 25 25 24 23 22 21 20 18 17 16 16 15 15 15 14
22 22 23 24 24 24 24 24 25 24 24 23 23 23 23 23 23 24 25 25 25 25 25 24 24 23 23 22 22 21 19 17 16 15 14 14 14 13

GEFSNE_500_meanwind_240.txt.gz
Wind_Speed
17 19 19 19 19 20 22 22 22 23 24 25 26 26 27 28 28 29 30 32 32 33 33 34 35 35 35 36 36 36 36 35 36 36 36 36 37 37
18 19 19 19 20 20 21 22 22 23 24 25 26 26 26 27 28 29 30 31 31 32 33 34 34 34 35 36 36 36 37 37 36 37 37 37 38 38
17 18 19 19 19 19 20 21 22 22 24 24 25 25 26 27 28 28 29 29 29 30 31 31 32 33 34 34 35 35 36 36 37 38 38 38 38 39
17 18 19 19 19 19 20 20 21 22 23 24 25 25 25 26 26 27 27 28 28 29 29 30 31 32 32 34 35 35 35 36 37 38 39 39 39 40
16 18 18 18 18 18 19 20 21 22 23 24 24 24 24 25 25 26 27 28 29 30 30 30 30 30 31 32 34 36 36 36 38 39 39 40 41 41
16 16 16 17 18 18 19 20 21 22 22 23 23 23 23 24 25 26 27 27 28 29 30 30 30 30 31 32 33 33 35 36 37 39 40 41 42 42
16 15 15 17 18 18 19 20 21 22 22 22 22 22 23 23 24 25 25 26 27 28 28 29 30 30 31 31 31 32 33 34 36 37 39 40 41 41
14 14 15 17 18 19 20 21 22 22 22 22 22 23 24 24 25 25 25 25 26 26 27 27 28 28 29 30 30 31 32 32 33 35 37 38 40 41
14 15 16 17 18 19 21 21 22 22 22 23 22 22 23 24 25 25 25 26 26 26 25 25 26 26 27 28 30 31 32 33 33 34 35 37 38 40
16 16 17 17 18 20 21 21 21 22 22 22 23 23 23 23 24 24 24 24 24 25 24 24 24 24 25 26 28 30 31 31 32 33 33 35 37 38
16 16 17 18 18 19 20 21 22 22 22 22 22 23 23 23 24 24 24 24 23 23 23 22 22 23 23 24 25 27 28 30 31 31 32 33 34 35
17 16 16 17 18 19 20 21 22 22 22 22 22 23 23 23 23 23 24 24 23 23 23 23 23 23 22 23 25 25 26 28 29 29 30 31 32 33
17 16 17 18 18 19 20 21 22 22 22 23 23 23 22 22 23 23 23 23 23 23 23 23 23 23 22 22 23 24 25 26 27 28 28 29 30 31
17 17 18 18 18 19 20 21 22 22 23 22 21 21 21 22 23 23 22 22 22 22 23 22 22 23 22 22 22 23 24 25 25 26 27 28 29 30
17 18 18 19 19 20 21 21 22 22 22 21 20 20 20 21 22 22 22 22 23 23 23 22 22 22 22 22 22 22 23 23 24 24 25 26 27 28
17 18 19 19 20 20 21 22 22 22 21 20 20 20 20 21 21 21 22 22 23 22 22 22 22 22 22 22 22 22 21 21 21 21 22 23 24 26
18 19 19 20 20 20 21 21 21 21 21 20 20 20 21 21 21 22 22 22 22 22 21 22 22 21 22 22 22 21 20 20 20 19 19 20 22 23
18 19 19 19 20 20 20 21 21 20 20 20 20 20 21 21 22 22 22 22 22 22 22 22 22 21 21 21 22 21 20 19 18 18 19 20 21 21
18 19 19 19 19 20 21 21 20 20 19 20 20 21 21 21 22 22 22 22 22 22 22 22 21 21 21 21 22 21 20 18 17 18 18 19 20 20
18 18 18 18 18 19 20 21 20 19 19 20 21 21 21 22 22 22 23 23 22 22 22 21 21 21 21 21 21 20 19 18 17 17 17 18 18 19
18 18 17 18 18 19 20 20 20 20 20 21 21 21 21 22 22 23 22 22 21 21 21 21 21 21 21 20 20 19 19 18 17 17 17 17 17 18
18 18 18 18 20 20 19 20 20 21 21 21 22 22 22 22 22 22 22 22 22 21 21 21 21 22 21 21 20 19 19 18 18 18 17 17 18 17
17 18 18 19 20 20 20 20 20 21 21 22 22 23 22 22 22 21 21 21 21 21 21 21 22 22 21 21 20 19 19 19 18 17 17 18 18 17

GEFSNE_500_meanwind_246.txt.gz
Wind_Speed
17 18 18 19 19 20 20 20 21 21 22 23 24 25 27 28 29 28 29 29 29 30 31 31 32 32 33 34 35 36 36 36 37 37 37 37 37 37
16 16 17 17 18 19 20 20 20 21 22 23 24 25 27 28 29 30 29 29 30 30 31 31 30 31 32 32 33 34 36 37 37 38 38 39 39 39
16 16 17 17 19 20 21 21 22 22 23 24 25 26 27 28 29 29 30 29 30 30 30 30 30 30 30 32 33 33 34 35 37 38 39 39 40 40
16 16 16 17 18 19 21 21 22 22 23 24 25 26 27 28 28 29 28 28 29 29 30 30 30 30 30 30 32 33 33 34 35 36 37 38 38 40
15 15 16 17 18 19 20 20 21 22 23 24 24 26 26 27 27 27 27 27 28 29 29 29 29 30 30 30 31 32 33 34 35 35 36 37 37 39
14 15 15 16 18 19 19 20 21 21 23 23 24 25 26 26 26 26 27 27 27 28 28 28 29 30 30 30 30 31 32 33 34 35 36 37 38 39
14 15 16 17 17 18 19 20 20 21 22 24 24 24 24 25 25 26 26 26 27 27 27 28 28 28 28 29 29 29 29 30 32 34 36 37 38 39
15 16 16 17 17 18 19 20 21 22 23 23 23 23 24 24 24 24 25 25 25 26 27 26 26 26 27 27 28 27 28 28 30 32 34 36 37 37
14 15 16 17 18 19 20 21 22 23 23 22 22 23 23 24 24 24 25 25 25 25 25 25 25 25 25 26 27 27 27 27 28 30 32 33 35 37
14 15 16 17 18 19 20 21 22 23 23 23 23 23 23 24 24 24 25 25 24 24 24 24 24 25 25 25 26 27 27 27 28 28 29 31 33 34
14 15 16 17 19 20 21 22 22 22 23 23 23 23 23 24 24 24 24 23 22 22 23 23 23 24 24 24 25 26 27 28 28 29 29 30 31 33
15 16 17 18 19 20 21 21 22 22 22 22 22 23 23 23 23 23 23 23 22 22 23 24 24 23 23 23 24 25 26 27 28 28 28 29 30 31
15 17 18 19 19 20 21 21 21 21 22 22 22 22 22 23 24 24 23 23 23 22 22 23 23 23 23 23 24 25 26 26 26 27 27 27 28 28
17 17 18 18 19 20 20 20 21 21 20 21 21 21 21 22 23 23 23 23 23 22 22 22 22 22 22 23 23 24 25 25 24 24 25 25 25 26
17 17 17 18 19 19 19 19 19 19 19 20 20 20 21 21 21 22 23 23 22 22 22 22 22 22 22 23 23 23 23 23 23 23 22 23 24 24
17 17 17 17 18 19 19 19 19 19 20 20 20 21 21 22 22 21 22 22 22 22 22 22 22 22 23 23 23 22 22 22 21 21 21 21 22 22
18 17 17 17 18 18 19 20 20 20 20 20 20 21 22 22 22 21 21 22 22 21 21 21 22 22 22 22 22 22 21 20 20 20 20 20 21 21
17 17 17 17 18 19 20 20 20 20 20 20 21 21 21 21 22 22 22 22 22 21 21 21 22 22 22 21 22 21 21 21 20 19 19 19 19 20
17 17 17 19 19 20 20 20 20 20 20 20 21 21 22 22 22 22 22 22 22 21 21 21 22 22 21 21 20 21 20 20 19 18 19 19 19 19
18 18 18 19 19 20 20 20 20 20 21 21 21 22 22 22 22 22 22 22 21 21 21 22 22 22 21 20 19 19 19 19 19 19 19 19 18 18
18 18 18 19 19 20 21 20 20 21 21 21 22 22 23 23 23 23 22 21 21 21 21 21 21 20 20 20 19 19 19 19 19 19 19 19 18 18
18 19 19 19 20 20 20 20 20 21 21 22 22 23 23 24 24 23 22 21 20 20 20 19 19 20 20 20 20 19 19 20 20 19 19 18 18 17
19 19 18 19 19 20 20 21 22 21 21 22 22 23 23 24 23 23 22 21 20 19 19 19 19 20 20 21 20 20 20 20 20 19 19 19 18 18

GEFSNE_500_meanwind_252.txt.gz
Wind_Speed
15 15 16 16 17 17 17 18 19 20 21 22 22 23 23 24 25 26 27 28 28 29 29 30 31 31 31 30 31 31 32 32 32 33 34 36 37 37
13 14 15 16 17 17 18 18 19 20 21 22 22 23 23 25 26 26 27 27 28 29 29 29 30 31 31 31 31 31 32 32 33 34 34 35 36 37
12 13 14 15 16 17 18 19 19 19 19 20 21 22 23 23 25 25 26 27 28 29 29 30 30 30 31 32 32 32 32 33 32 33 34 35 36 36
13 13 13 15 16 17 17 18 18 18 19 20 20 21 22 23 24 25 25 26 27 28 28 28 29 30 31 32 32 32 32 33 33 33 34 35 35 35
12 13 14 15 15 16 17 17 18 19 19 20 20 21 22 23 24 24 24 25 26 27 26 27 27 28 29 29 30 31 32 32 33 33 34 35 35 36
13 13 14 15 15 16 16 17 17 18 19 20 21 22 22 23 24 24 24 25 25 26 26 27 28 28 28 28 29 30 31 31 33 33 34 34 35 36
13 14 15 15 15 16 16 16 17 18 20 20 21 21 22 23 23 23 24 24 25 26 26 27 27 27 27 28 28 28 29 30 31 32 33 34 35 36
14 15 15 15 15 15 16 18 19 20 21 21 21 22 23 23 23 23 23 24 24 25 26 26 26 26 26 27 27 27 28 29 29 31 32 33 34 35
15 15 15 15 16 16 17 18 19 20 21 21 21 22 23 23 23 23 23 24 24 24 25 25 25 26 26 26 25 26 27 28 28 29 30 31 31 33
15 16 16 16 16 17 18 18 19 19 19 19 20 21 22 22 22 23 23 23 24 23 23 24 25 26 26 25 25 25 25 26 26 27 28 29 30 31
15 15 15 15 16 17 18 18 18 19 18 18 20 20 21 21 21 22 22 22 23 23 24 24 24 24 25 24 24 24 24 24 25 25 26 26 27 28
14 14 15 15 15 17 18 18 18 18 18 19 20 20 21 21 21 21 21 22 23 22 22 24 24 24 24 24 24 24 25 25 25 24 25 26 27 28
13 14 14 15 16 17 18 18 19 19 18 19 19 20 20 21 21 21 21 22 22 22 22 23 24 24 24 24 24 25 25 24 24 23 24 25 26 27
14 14 14 15 16 16 17 18 18 18 18 18 19 19 20 21 20 20 21 21 22 22 22 22 23 23 23 23 23 23 23 23 23 23 23 24 25 25
14 14 14 15 15 16 16 17 18 18 18 17 17 18 19 20 20 20 21 21 21 21 21 21 21 21 21 21 22 22 22 22 22 22 22 23 23 23
13 13 14 15 16 16 16 17 17 17 17 17 17 18 20 21 21 21 21 21 21 21 21 21 21 21 21 21 21 21 21 21 21 21 21 21 21 22
13 13 14 15 15 16 16 16 16 17 17 18 18 19 19 20 21 20 21 21 21 21 21 20 20 20 20 21 20 21 21 20 19 19 19 19 20 21
13 14 14 15 15 15 16 16 16 16 17 18 19 19 19 20 20 21 21 21 21 21 20 20 20 20 20 21 20 19 19 18 18 18 19 19 19 19
13 14 15 15 15 15 15 16 16 17 18 18 19 19 19 20 21 21 21 21 21 21 20 20 20 20 20 20 19 18 18 17 17 17 17 17 17 17
15 14 14 15 15 14 15 16 16 17 18 18 19 19 19 20 21 21 21 21 21 21 20 20 20 19 19 19 18 18 17 17 17 16 17 17 17 18
16 15 14 14 14 13 14 16 17 16 17 19 20 20 20 21 21 21 21 20 20 20 20 20 19 19 19 18 18 17 17 17 17 17 17 18 18 19
16 16 15 15 15 14 15 16 17 17 17 19 20 20 20 21 21 21 20 20 19 19 19 20 20 19 18 17 17 17 17 18 18 19 19 19 19 19
16 17 16 16 17 17 17 17 17 17 18 19 20 21 21 21 21 21 21 20 20 19 19 19 19 19 18 17 18 18 18 18 18 19 19 20 20 20

GEFSNE_500_meanwind_258.txt.gz
Wind_Speed
15 15 16 16 16 16 16 16 17 17 17 18 18 20 20 20 21 21 22 22 23 24 25 26 26 27 28 28 29 29 30 30 31 32 32 32 32 32
15 15 15 16 16 15 15 16 17 17 18 18 19 19 20 20 19 20 21 21 22 23 24 24 25 26 27 27 28 29 29 29 29 30 31 32 33 33
15 15 15 16 15 15 16 16 16 17 18 18 19 19 19 19 19 20 21 21 22 22 23 24 26 26 27 27 28 28 28 28 28 29 30 31 33 33
15 15 15 16 15 15 15 16 17 17 17 17 18 19 19 20 21 22 22 23 24 24 25 24 25 26 27 28 28 28 28 28 29 30 30 31 32 33
15 15 16 16 15 15 15 16 16 17 17 17 19 19 20 21 22 23 23 24 25 25 25 25 26 27 27 27 27 27 28 29 29 30 31 31 32 33
14 14 15 16 15 16 16 16 17 16 17 18 20 20 21 22 23 23 23 24 25 25 25 25 26 26 27 27 27 27 28 29 29 30 31 32 33 33
14 15 15 15 15 15 16 16 17 17 18 19 21 21 21 22 22 22 23 23 24 24 25 25 26 27 27 27 28 28 28 28 30 31 31 32 33 33
14 14 15 15 15 15 16 17 18 18 19 20 20 20 21 21 21 22 23 23 23 24 25 25 26 26 26 27 28 28 29 29 30 30 31 31 32 32
14 14 14 14 15 16 17 18 18 18 19 20 20 20 21 21 22 22 23 23 23 24 25 25 26 26 26 26 27 28 28 29 30 30 30 30 30 31
14 14 14 15 16 17 17 17 17 18 19 20 20 20 20 22 22 22 23 24 23 24 25 25 24 25 25 26 26 26 27 27 28 28 29 30 30 30
14 15 15 15 15 16 16 16 17 18 19 19 19 19 20 20 21 22 23 23 23 23 23 24 24 24 25 26 26 26 26 26 26 27 27 27 27 27
14 14 15 16 16 16 17 17 17 18 19 19 18 19 19 20 21 21 22 22 22 22 23 23 23 24 24 25 25 25 24 24 24 24 24 25 25 25
14 15 15 16 16 16 17 17 18 18 18 18 19 19 20 20 21 21 22 22 22 22 23 23 24 24 24 24 24 23 23 22 22 22 22 23 24 24
15 15 15 16 16 16 16 17 18 18 18 18 19 19 20 21 21 21 21 21 21 22 23 23 23 23 23 23 23 22 22 21 20 20 20 21 22 22
14 15 15 15 15 16 16 16 17 18 18 18 19 19 20 21 21 21 21 22 22 22 22 22 22 22 22 22 22 22 20 20 19 19 19 19 19 20
14 15 15 15 15 16 16 17 17 17 18 19 19 19 20 20 20 21 21 22 22 22 22 22 22 22 22 22 22 20 19 19 18 18 18 18 18 19
14 14 14 14 14 15 15 16 16 17 18 19 19 19 19 19 20 20 21 21 21 22 21 21 21 21 21 21 20 19 18 17 17 17 18 19 19 20
15 14 14 14 14 15 15 15 16 17 18 19 19 19 19 19 19 20 20 21 20 20 20 20 20 20 20 20 19 18 17 17 17 18 18 19 19 20
14 14 14 14 15 15 16 16 16 17 18 19 19 19 19 19 19 19 20 20 20 19 19 19 19 19 19 18 17 17 17 17 17 18 18 19 20 21
14 14 14 14 15 17 17 17 17 18 18 19 19 19 19 19 19 19 19 19 19 19 19 19 19 19 19 18 17 17 18 18 18 18 19 20 21 21
15 15 15 15 16 17 18 17 17 18 18 18 19 19 19 19 19 19 18 18 18 18 19 19 19 19 19 18 17 17 18 18 18 19 20 20 20 20
15 15 16 16 17 18 18 18 18 18 18 18 19 18 18 19 19 19 18 18 18 18 18 18 18 19 19 18 18 18 18 19 19 20 20 21 21 20
15 15 16 17 18 19 19 19 19 19 19 19 19 19 19 19 19 19 18 18 18 18 18 18 19 19 19 18 18 18 19 19 19 20 20 21 21 20

GEFSNE_500_meanwind_264.txt.gz
Wind_Speed
12 12 12 13 13 14 14 13 14 14 15 16 16 17 17 18 19 19 20 20 21 22 23 23 24 24 25 26 27 27 28 28 29 29 29 30 30 31
12 12 13 13 14 14 14 14 14 13 13 14 15 16 17 18 19 19 20 21 21 22 22 23 24 24 26 27 27 28 29 30 30 31 31 31 31 31
12 13 13 14 14 14 15 15 15 15 15 15 15 16 17 18 19 19 20 21 21 22 23 23 24 25 26 26 27 29 30 31 31 31 32 32 31 31
12 13 13 14 14 15 15 15 15 15 15 16 16 17 17 17 18 19 19 20 20 22 23 23 24 25 26 26 27 28 29 30 30 31 32 32 32 32
13 13 13 14 14 15 16 16 15 16 16 17 16 16 17 17 18 18 20 20 20 21 22 23 24 25 26 27 27 27 28 28 29 30 31 32 33 33
12 12 13 14 14 15 15 15 15 15 16 16 16 17 17 18 19 20 20 21 21 22 22 23 24 25 26 26 27 27 27 28 28 29 30 32 33 33
10 11 12 13 14 14 14 14 14 14 15 15 16 17 18 19 19 20 21 21 22 22 23 23 24 24 25 26 26 27 28 28 29 29 30 30 31 32
10 11 11 13 14 14 13 13 13 14 15 16 17 18 18 19 20 21 21 22 22 23 23 24 24 24 25 26 26 27 28 29 29 29 29 29 30 31
11 11 12 13 12 12 12 12 13 14 15 16 17 18 19 19 19 20 21 21 21 22 23 23 23 24 24 25 26 26 27 27 28 28 28 28 29 29
11 11 11 11 11 11 11 12 13 14 15 16 17 17 18 19 19 20 20 20 20 21 21 22 22 23 24 24 25 26 26 25 25 26 26 27 27 27
12 11 11 10 11 11 11 13 14 14 15 16 16 17 17 18 18 19 19 20 20 21 21 21 22 23 23 24 24 24 24 24 24 25 26 26 26 26
12 12 11 11 11 11 12 13 14 15 16 17 17 17 17 17 18 19 19 20 20 21 21 21 22 23 23 23 23 23 23 23 24 24 25 25 25 25
12 12 11 11 11 12 12 13 13 14 15 16 17 17 17 18 18 19 20 20 20 20 21 21 22 22 22 23 22 23 22 22 23 23 23 23 23 23
12 11 11 11 11 11 12 12 13 14 15 15 16 16 17 18 19 19 20 21 21 21 21 21 22 22 23 22 22 22 22 22 22 22 21 21 21 22
11 10 10 11 11 12 12 13 13 14 14 15 15 16 17 18 18 19 20 21 21 20 20 21 21 21 22 21 21 21 21 21 21 21 20 20 20 21
11 11 11 11 12 12 13 13 14 14 15 15 15 16 17 18 18 20 20 20 20 20 20 20 21 21 21 20 20 20 20 20 20 20 19 19 19 19
11 11 11 11 12 13 13 13 14 14 15 16 16 17 17 18 19 20 20 19 19 20 20 21 21 21 20 20 19 19 19 20 20 19 19 18 18 18
11 12 12 12 13 13 14 14 15 15 16 16 17 18 18 18 19 19 19 19 19 19 20 20 20 19 19 18 18 18 19 19 19 19 18 18 18 18
12 12 13 13 13 14 15 16 17 17 17 18 18 18 19 19 20 19 19 19 19 19 19 19 19 18 18 18 18 17 18 18 18 18 17 17 17 18
12 13 13 13 14 15 16 16 17 17 18 18 18 19 20 20 20 19 19 19 19 19 19 18 18 18 17 17 17 17 17 18 18 18 18 17 17 18
13 13 13 14 14 15 15 16 16 17 17 18 18 19 20 20 20 19 19 19 19 18 19 19 18 17 17 17 17 17 18 18 18 18 18 18 18 17
14 14 15 15 15 15 16 16 16 17 17 18 19 19 20 20 19 19 19 19 19 18 18 18 18 18 17 17 17 17 18 18 19 20 19 18 17 17
14 15 15 16 16 15 15 15 16 17 18 19 19 20 20 20 19 19 19 19 19 19 19 19 19 18 18 18 18 18 18 19 19 20 19 19 18 18

GEFSNE_500_meanwind_270.txt.gz
Wind_Speed
13 14 14 15 15 15 15 15 15 15 16 16 16 16 16 17 18 18 19 20 20 20 21 21 22 22 23 24 25 26 26 27 27 27 28 29 29 29
13 13 14 14 14 13 14 15 15 15 15 15 15 16 17 17 18 18 19 19 19 20 20 21 22 22 23 24 25 26 27 27 28 28 29 30 30 30
12 12 11 12 13 13 14 15 15 15 15 15 15 16 17 17 18 18 18 19 19 21 21 22 22 23 24 24 25 26 26 27 28 29 29 30 31 31
12 12 12 12 13 14 14 15 15 15 15 15 16 16 16 16 17 18 18 19 20 21 22 23 23 23 24 24 25 25 26 27 28 29 30 30 31 32
11 12 12 12 12 13 14 15 15 15 15 16 16 16 15 15 16 18 19 20 21 21 22 23 23 23 24 24 25 25 26 27 28 29 30 31 31 32
11 11 12 12 12 13 14 14 14 15 15 15 15 15 16 16 17 18 19 20 21 21 22 22 23 23 24 24 25 25 26 27 27 28 29 30 31 32
11 12 12 12 12 13 13 13 14 14 14 14 15 16 16 17 18 18 19 19 20 21 21 22 23 24 24 24 25 26 26 27 27 28 28 29 30 31
11 12 12 12 13 13 13 13 14 14 14 14 15 16 17 17 17 18 18 19 19 20 21 22 22 23 24 24 25 25 26 27 28 27 27 28 28 29
12 12 12 13 12 12 12 13 14 14 14 15 15 16 17 18 18 18 18 18 19 19 20 20 21 22 22 23 24 24 25 26 27 27 27 27 27 28
13 13 13 13 13 13 13 14 14 14 14 15 16 17 17 18 18 18 19 19 20 20 20 20 20 21 22 23 23 23 25 25 26 26 26 26 26 26
12 12 12 12 13 13 14 14 14 15 15 15 17 17 18 18 18 19 19 20 20 20 21 21 21 21 22 22 22 23 24 24 25 25 25 25 25 26
11 12 12 12 12 13 13 14 14 14 15 16 17 17 17 17 18 19 20 20 20 21 21 21 21 22 22 22 23 23 24 24 24 23 24 25 25 25
12 12 12 12 12 12 13 13 14 14 15 15 16 16 17 17 17 18 19 19 20 21 21 21 22 22 22 23 23 24 24 24 23 23 23 24 24 24
13 13 13 13 13 13 13 14 14 14 14 14 15 15 17 18 18 19 19 20 21 22 22 22 21 22 22 23 23 24 24 23 23 22 23 23 22 22
14 14 14 14 14 14 14 14 15 15 14 14 15 16 17 18 18 19 19 20 20 21 21 21 21 22 23 23 23 24 24 23 22 21 21 21 20 20
14 14 15 15 15 14 15 15 15 15 15 15 16 17 18 18 18 19 19 20 20 20 21 21 22 22 23 23 23 23 23 22 21 20 19 19 19 20
15 15 15 15 15 15 15 15 15 15 15 15 16 17 18 18 19 20 20 20 20 21 21 22 23 23 23 23 22 22 22 21 20 19 19 19 20 20
15 15 15 15 16 16 15 15 15 15 15 16 17 18 18 18 19 20 20 21 21 21 22 22 22 23 24 23 22 22 22 20 19 19 19 20 20 20
15 15 15 15 16 16 15 15 15 15 16 16 17 18 19 19 19 20 21 21 21 21 21 22 22 22 23 22 21 21 20 20 19 19 19 19 19 19
14 14 15 15 15 16 16 16 17 17 17 17 18 19 20 20 20 21 21 21 21 22 22 22 21 22 22 21 21 19 19 20 19 19 19 20 19 19
14 15 15 16 16 17 17 17 17 17 17 18 19 20 20 21 21 22 22 22 22 22 22 21 21 21 21 20 20 19 19 20 20 20 19 19 20 20
16 16 16 17 17 17 17 16 16 17 18 19 19 20 20 21 22 23 23 23 23 22 21 21 21 21 20 20 20 20 20 20 20 20 19 20 20 20
16 16 17 17 17 16 16 16 17 17 18 19 19 20 21 21 22 23 23 22 22 21 21 21 21 21 20 20 20 20 20 20 20 19 19 20 20 20

GEFSNE_500_meanwind_276.txt.gz
Wind_Speed
13 14 14 14 14 14 15 15 15 15 15 14 15 15 15 15 15 16 16 17 18 18 19 19 19 19 20 21 22 23 24 26 27 27 27 28 28 29
13 13 13 13 13 14 15 15 15 15 15 15 15 15 15 16 16 17 18 19 19 19 19 20 20 20 20 21 22 23 23 25 26 27 28 29 29 29
12 13 13 14 14 14 14 15 15 15 15 15 15 15 16 16 17 17 17 18 18 19 20 20 20 21 21 21 22 23 24 24 26 27 27 28 29 29
12 13 13 14 14 14 14 14 14 14 14 15 15 16 16 16 16 16 16 16 17 18 19 20 20 21 21 22 23 23 24 25 26 26 27 27 28 28
12 13 13 14 14 14 14 13 13 14 15 15 15 16 16 17 17 17 17 17 18 19 19 19 20 21 21 22 23 24 24 25 26 26 26 27 27 28
12 13 13 13 14 14 13 13 13 14 15 15 16 16 16 16 16 17 18 18 18 19 20 20 20 21 22 23 24 24 25 25 25 25 26 26 27 27
12 13 13 13 14 13 12 13 13 14 15 16 16 16 16 16 17 17 17 18 19 19 20 20 20 21 22 23 24 24 25 25 25 25 25 25 26 26
13 13 13 13 12 13 13 14 14 15 15 15 16 16 16 16 16 16 17 17 18 19 20 20 21 22 22 23 23 23 24 24 24 24 24 24 24 25
13 13 12 12 13 13 13 13 14 14 15 15 15 15 15 16 16 16 17 17 18 19 20 20 21 21 21 22 22 22 22 22 23 23 24 24 24 25
12 12 13 13 14 14 14 14 14 14 15 15 14 15 15 16 16 17 17 18 18 19 19 19 20 21 21 21 21 21 21 22 21 22 22 23 24 24
12 12 13 13 14 14 14 14 14 15 14 14 14 15 15 16 16 16 17 18 17 18 18 19 20 20 21 20 20 20 20 21 21 21 22 23 23 24
11 12 12 12 13 14 14 14 14 14 14 14 14 14 15 16 16 16 17 18 18 18 19 19 20 20 21 20 20 20 20 20 21 21 22 22 23 24
12 12 12 12 12 13 14 14 14 14 14 14 14 15 16 16 16 17 18 18 19 19 19 19 20 20 20 20 20 20 20 21 21 22 22 23 23 24
12 12 13 13 13 14 14 14 14 14 14 14 14 15 16 16 17 17 18 19 19 19 19 19 20 20 20 20 20 21 21 21 21 22 22 22 23 24
12 12 13 14 15 15 15 15 14 14 14 14 15 16 16 17 17 18 19 19 18 18 19 20 20 21 21 21 21 21 21 21 21 22 22 22 22 23
13 13 14 14 14 15 15 15 14 14 15 15 16 16 17 17 18 18 18 19 19 19 20 20 21 21 21 22 22 21 21 21 21 22 22 23 23 23
14 15 15 15 15 15 16 15 14 15 15 16 17 17 17 17 17 18 19 20 20 21 21 21 21 21 22 22 22 22 22 22 22 22 23 23 23 23
15 16 16 16 16 17 16 16 15 15 16 16 17 17 17 17 18 18 19 21 21 21 21 21 21 22 23 22 23 23 23 23 23 23 23 23 22 22
16 16 16 17 17 17 17 16 16 16 15 16 16 16 16 18 19 19 20 20 21 21 21 22 22 22 23 23 23 23 23 23 23 23 23 22 22 21
17 17 16 16 16 17 17 16 16 16 16 17 17 17 17 18 19 19 20 20 20 20 21 22 22 22 22 23 24 24 24 24 23 22 22 21 21 21
17 16 16 17 17 17 17 17 16 16 16 17 17 17 17 18 19 19 20 20 20 21 21 22 22 22 22 23 24 24 24 23 22 21 21 20 20 21
17 17 17 17 17 17 17 16 16 16 16 16 17 17 18 18 19 19 20 20 21 21 22 22 22 22 22 22 22 22 23 22 22 21 20 20 20 20
18 18 18 17 17 16 16 16 16 16 16 16 16 16 17 17 18 19 20 21 22 22 23 23 23 22 22 23 22 22 22 22 22 21 19 19 20 20

GEFSNE_500_meanwind_282.txt.gz
Wind_Speed
13 13 14 14 15 15 15 15 15 15 15 15 15 16 16 16 16 16 15 15 15 16 16 16 16 16 17 18 19 19 20 21 22 23 24 25 25 26
13 14 14 15 15 15 15 15 15 15 15 15 15 15 15 15 15 15 15 16 16 16 16 16 16 17 17 18 19 19 20 21 22 23 24 25 25 26
14 14 14 15 16 16 16 16 15 15 15 15 14 15 15 15 15 16 16 16 16 15 16 17 17 17 16 17 18 19 21 21 22 23 24 25 25 26
14 14 15 15 15 16 16 16 15 15 16 15 15 15 15 15 16 16 16 16 16 15 16 17 17 18 17 17 18 19 21 21 22 23 23 24 25 26
14 15 15 15 15 16 16 16 16 16 16 15 14 15 15 15 16 16 16 17 16 16 16 16 16 17 18 18 19 19 20 21 22 23 23 24 24 25
14 14 15 15 15 16 16 16 16 16 15 15 14 14 14 15 15 16 16 16 17 17 17 17 17 17 18 19 20 20 21 22 22 23 23 23 24 24
14 14 14 14 14 15 16 16 15 15 14 14 14 14 15 15 15 16 16 17 17 17 17 17 18 19 19 19 20 21 21 22 22 23 23 23 23 23
14 15 14 14 14 15 15 14 13 13 13 13 14 14 15 15 15 15 16 17 17 17 18 18 19 19 19 20 20 21 21 22 23 23 23 23 23 23
14 14 15 15 15 15 14 13 13 12 13 14 14 15 15 15 16 16 16 16 16 17 18 19 19 19 20 21 21 22 22 22 22 23 22 22 22 22
14 14 15 15 15 14 14 14 14 14 14 15 15 15 16 16 16 16 16 16 16 17 18 19 19 20 21 22 22 22 22 23 22 22 21 21 21 21
15 15 15 15 15 15 15 14 14 15 15 15 15 16 16 16 17 16 16 16 17 18 18 19 20 21 21 22 23 22 21 21 21 21 21 21 21 22
15 15 15 15 15 15 15 15 15 16 15 15 15 16 16 16 16 16 16 17 17 18 19 20 20 21 22 22 22 21 20 20 20 21 21 21 21 22
15 15 15 15 15 16 16 16 16 15 15 15 16 16 16 17 16 16 16 18 18 19 20 20 21 21 22 21 22 21 21 21 21 21 21 21 21 22
16 15 15 15 15 15 15 15 16 16 16 16 16 16 17 17 17 17 17 19 19 20 20 20 21 21 21 21 21 22 22 22 22 22 22 21 21 22
16 16 15 15 15 15 15 16 16 16 16 16 17 17 17 17 17 18 18 19 19 20 20 21 21 21 21 21 21 21 22 22 22 22 22 22 22 22
17 16 16 16 16 16 16 17 17 17 17 17 18 18 18 18 18 18 18 18 19 20 21 22 21 21 21 21 21 21 22 22 22 22 22 22 23 23
18 18 18 18 18 17 17 17 17 18 18 18 18 18 18 18 19 19 19 19 20 21 22 22 22 21 21 20 21 22 22 22 22 22 23 23 24 24
19 19 19 19 19 19 18 18 18 18 18 18 19 19 18 19 19 18 19 19 20 21 21 21 21 20 21 21 21 22 22 22 22 22 22 23 23 24
20 20 19 20 19 19 19 18 18 18 18 18 18 18 18 19 19 19 19 19 20 20 21 21 21 21 21 22 22 23 22 22 22 23 23 24 24 24
20 20 19 19 19 19 19 18 18 18 18 18 18 19 19 19 19 19 19 19 20 20 20 21 21 22 23 23 23 23 23 23 23 23 24 24 24 24
21 20 19 19 19 19 18 18 19 19 19 19 20 20 20 20 20 19 19 20 21 21 21 22 23 23 23 23 23 22 23 24 24 24 24 24 23 23
21 21 20 20 20 20 20 20 20 20 20 21 21 21 20 20 20 19 19 20 21 21 22 22 23 23 23 23 23 23 24 24 24 24 24 24 23 22
23 22 23 22 22 21 21 21 21 21 21 21 22 22 21 20 19 19 19 20 21 21 21 22 23 23 23 23 23 24 24 24 24 23 22 22 21 21

GEFSNE_500_meanwind_288.txt.gz
Wind_Speed
12 12 12 13 13 13 13 14 14 14 13 13 14 14 15 14 15 15 15 16 16 15 15 14 15 15 15 16 16 16 17 18 19 20 21 21 22 23
12 12 12 13 13 13 14 14 14 13 13 14 14 14 13 14 14 15 16 16 16 15 15 15 15 15 15 15 16 17 17 18 19 21 22 22 23 24
12 13 13 13 13 13 13 13 13 13 13 13 14 13 14 14 14 15 16 16 15 15 16 16 16 16 16 15 16 17 18 19 20 21 22 23 24 25
13 13 13 13 13 13 14 13 13 13 13 13 14 14 15 15 15 16 16 16 16 15 16 16 16 16 16 16 17 18 18 20 21 22 22 23 25 26
14 14 14 14 14 14 14 14 14 14 14 14 15 15 16 16 16 17 17 16 16 16 16 16 16 17 16 16 17 18 19 20 21 22 22 23 24 24
14 14 14 14 14 14 14 14 14 14 15 15 15 15 16 16 16 17 16 15 15 15 16 16 17 17 17 17 18 18 19 20 21 21 22 23 23 23
14 14 14 14 14 14 14 14 15 14 14 14 15 16 16 16 16 15 14 14 14 15 15 16 16 17 18 19 19 19 20 20 20 21 21 22 22 22
13 14 14 15 15 15 15 15 15 15 14 15 15 15 15 15 14 14 14 14 14 15 15 16 17 17 18 19 20 21 21 21 21 21 21 21 21 21
14 14 14 14 15 15 15 16 15 15 15 15 15 15 14 14 13 13 14 14 15 15 15 15 16 17 18 19 19 20 20 20 20 20 20 20 20 21
14 14 14 15 15 15 15 14 15 15 15 15 15 14 14 13 13 14 14 14 15 16 16 16 17 18 19 19 20 20 20 20 20 20 20 20 20 21
14 14 14 15 15 14 15 15 15 15 15 15 14 14 14 14 14 14 15 16 16 17 17 17 18 18 19 20 20 20 20 20 20 20 20 20 20 21
14 14 15 15 15 15 15 15 15 16 16 15 14 15 15 15 15 15 16 17 17 17 17 18 18 18 19 19 20 20 20 21 20 20 20 20 21 21
14 15 15 15 15 16 16 16 16 16 16 16 16 17 17 16 16 17 17 17 17 17 18 18 18 19 19 19 19 20 21 21 21 20 21 21 21 22
14 15 15 15 15 16 16 16 17 17 17 17 17 18 18 17 17 17 18 18 17 18 19 19 19 19 20 20 20 20 20 21 21 21 22 22 22 22
15 15 15 15 15 15 16 16 17 17 17 17 17 18 18 18 17 17 18 18 19 19 20 20 20 20 21 20 21 21 21 21 21 22 22 22 22 23
16 16 16 16 16 16 16 16 17 17 18 17 18 18 18 18 18 18 18 19 19 20 20 20 20 20 21 21 21 21 21 21 22 22 22 23 23 23
17 17 17 17 17 17 18 18 17 18 18 18 19 19 19 18 18 17 17 17 17 18 19 20 20 21 21 21 21 21 22 22 23 23 24 24 24 24
18 18 18 19 19 18 18 18 18 18 18 19 19 19 18 17 16 16 16 17 17 18 18 19 20 20 21 21 21 21 22 23 23 23 24 24 24 24
19 19 19 20 20 20 19 19 19 18 18 18 18 18 18 18 17 16 17 17 18 18 19 21 21 21 21 21 21 22 23 23 24 24 24 24 24 23
20 20 20 20 20 20 19 19 18 18 18 18 18 19 19 18 18 18 18 18 19 20 21 21 22 22 21 21 22 23 24 24 24 24 24 24 24 23
20 20 20 20 20 19 19 19 19 19 19 19 19 19 19 19 19 19 19 20 20 20 20 21 21 21 22 22 22 23 23 24 24 24 24 24 23 23
20 20 20 20 20 20 20 20 20 20 20 21 21 20 20 19 20 20 20 21 21 20 20 20 21 21 22 22 23 24 24 24 24 23 23 23 22 22
21 21 21 21 21 21 21 21 21 21 20 20 20 20 21 21 21 21 21 21 21 21 21 21 21 22 23 24 24 24 24 24 24 23 23 23 22 21

GEFSNE_500_meanwind_294.txt.gz
Wind_Speed
13 13 13 14 14 14 14 14 14 14 14 15 15 16 16 17 17 17 16 16 16 17 17 17 17 16 17 17 18 18 18 18 18 18 19 19 19 20
14 14 14 15 15 15 15 15 15 15 15 15 15 15 16 16 16 16 16 16 16 17 17 17 16 16 16 16 17 17 18 18 19 19 19 19 20 20
14 15 15 15 15 15 15 15 15 15 15 15 16 16 16 16 16 16 16 17 17 18 18 17 17 17 16 16 16 17 18 19 19 20 20 19 20 20
14 15 15 15 15 15 15 15 15 15 15 15 15 16 16 16 17 17 17 18 18 18 18 18 18 17 17 17 17 18 18 19 20 20 19 19 20 21
15 15 15 15 15 15 16 16 15 15 15 15 16 16 17 17 17 17 18 18 18 18 19 19 19 18 18 18 18 18 17 17 18 19 19 19 20 21
15 15 15 15 15 16 17 17 16 15 15 16 16 17 17 17 17 17 17 17 18 19 19 18 18 18 18 19 19 18 18 18 18 19 20 20 20 21
15 16 16 16 16 16 17 18 17 17 16 16 16 17 17 18 18 18 17 18 18 18 18 18 18 18 18 18 19 18 18 19 19 20 20 20 20 20
16 16 16 16 16 17 18 18 18 18 17 17 16 17 17 18 18 18 19 18 18 18 18 18 18 18 18 18 19 19 19 19 20 20 20 20 20 20
17 16 16 16 17 18 18 18 18 19 18 17 17 18 18 18 19 19 19 19 19 18 18 17 18 18 18 18 18 18 18 19 20 20 21 21 21 21
17 17 17 17 18 19 19 18 18 18 18 18 18 19 19 19 20 20 20 19 19 19 18 18 18 18 18 18 19 19 19 19 20 21 21 21 22 22
17 17 17 18 18 18 18 18 18 18 18 18 19 19 19 20 20 19 20 20 19 19 19 19 18 18 18 19 19 19 20 20 20 21 22 22 23 23
19 19 19 18 18 18 18 18 19 19 18 19 19 20 20 20 19 20 20 19 19 20 19 19 19 19 18 19 20 20 20 21 21 22 22 22 22 23
20 20 20 20 19 19 19 19 19 19 19 19 19 19 20 20 20 20 20 20 20 20 19 19 19 19 19 19 20 20 20 20 21 21 21 21 22 23
21 21 20 20 19 19 19 19 19 20 20 19 19 19 19 19 20 20 21 21 21 20 20 20 20 20 20 20 20 21 22 22 22 22 22 22 22 23
21 22 21 21 20 20 20 20 20 20 20 20 19 19 20 20 21 21 22 21 21 20 21 21 22 21 21 21 22 22 22 22 22 22 22 22 22 23
21 21 21 21 20 20 20 20 20 20 21 21 21 21 21 21 22 21 21 20 20 20 20 21 22 22 21 21 22 22 22 22 22 22 22 22 22 22
20 20 20 20 20 20 20 20 20 21 21 21 21 21 22 22 21 21 20 20 19 19 20 20 21 21 21 21 21 21 21 21 21 22 22 22 22 22
19 19 19 20 21 20 20 20 20 20 20 21 22 22 22 21 20 20 20 20 20 19 20 20 20 20 20 20 21 22 21 21 21 22 22 22 22 22
20 20 20 20 21 22 21 21 21 20 20 21 21 21 21 20 19 19 19 20 20 20 20 20 20 20 21 21 21 21 22 22 22 22 22 22 22 22
22 21 21 21 21 21 21 21 21 21 21 21 22 21 20 20 20 20 21 21 21 21 21 21 21 21 21 21 21 21 22 22 22 22 22 22 22 23
22 22 22 22 21 21 21 22 22 22 22 22 22 22 21 21 22 22 22 22 22 21 22 22 22 22 23 23 22 22 23 22 22 22 22 22 23 24
22 23 22 22 22 22 22 23 23 23 23 23 23 23 23 22 23 23 23 23 23 22 23 23 23 24 24 24 23 22 22 22 23 23 23 23 24 24
24 23 23 23 23 23 24 24 24 23 23 23 23 23 24 24 23 24 24 23 23 23 23 24 24 25 25 24 22 22 23 23 23 23 24 24 25 25